{"data":{"norad_id":68906,"intl_designator":"2026-097M","name":"STARLINK-37541","alt_names":[],"object_type":"PAYLOAD","status":"ACTIVE","operator":null,"country":"US","launch_date":"2026-04-30","launch_site_code":"AFWTR","launch_vehicle":null,"mission":null,"orbit_class":"UNKNOWN","rcs_meters":null,"size_class":null,"mass_kg":null,"dimensions":null,"purposes":["comms"],"wikipedia_slug":null,"has_3d_model":false,"image_url":null,"decayed_at":null,"tle_current":{"epoch":"2026-05-24T14:11:10.289184Z","epoch_age_seconds":110436,"freshness":"FRESH","line1":"1 68906U 26097M   26144.59109131 -.00410699  00000+0 -84632-2 0  9994","line2":"2 68906  97.2858 340.3465 0001515  24.4392 335.6930 15.47395107  3869","mean_motion":15.47395107,"eccentricity":0.0001515,"inclination_deg":97.2858,"raan_deg":340.3465,"arg_perigee_deg":24.4392,"mean_anomaly_deg":335.693,"bstar":-0.0084632,"rev_number":386,"period_min":93.059619581697,"perigee_km":423.31902655148,"apogee_km":425.38017999227,"semimajor_km":6802.4866032719,"source":"CELESTRAK","updated_at":"2026-05-25T13:38:22.068613Z"}}}